Location: Eaton Estates
(41.3089°N, 82.0057°W)
Time: 08:44:36
(UTC+00:00)

Meteor 2-3 Rocket - Pass Details

Date: 17 June 2021
Orbit: 842 x 885 km, 81.2° (Epoch: 28 July)

Event Time Altitude Azimuth Distance (km) Brightness Sun altitude
Exits shadow 08:44:01 14° 217° (SW) 2,182 5.2 -11.1°
Maximum altitude 08:48:31 44° 285° (WNW) 1,166 4.2 -10.5°
Drops below altitude 10° 08:53:50 10° 357° (N) 2,472 6.7 -9.8°
Sets 08:56:23 0° 4° (N) 3,409 7.6 -9.4°
